Monroe, NC

1:39 AM EDT on May 23, 2017 (GMT -0400)
Monroe

Weather History for KEQY - October, 2012

Change the Weather History Date:

Thursday, October 18, 2012

  Actual Average (KCLT) Record (KCLT)
Temperature  
Mean Temperature 64 °F -  
Max Temperature 78 °F 70 °F 87 °F (1938)
Min Temperature 50 °F 48 °F 31 °F (2001)
Degree Days  
Heating Degree Days 2    
Growing Degree Days 14 (Base 50)    
Moisture  
Dew Point 56 °F    
Average Humidity 82    
Maximum Humidity 100    
Minimum Humidity 56    
Precipitation  
Precipitation 0.00 in - - ()
Sea Level Pressure  
Sea Level Pressure 29.87 in    
Wind  
Wind Speed 1 mph (South)    
Max Wind Speed 9 mph    
Max Gust Speed -    
Visibility 9 miles    
Events      
Averages and records for this station are not official NWS values.
T = Trace of Precipitation, MM = Missing Value Source: NWS Daily Summary

Daily Weather History Graph

Daily Weather History Graph

Search for Another Location

Airport or City:

Trip Planner

Search our weather history database for the weather conditions in past years. The results will help you decide how hot, cold, wet, or windy it might be!

Date:

Astronomy

Oct. 18, 2012 Rise Set
Actual Time 7:31 AM EDT 6:43 PM EDT
Civil Twilight 7:05 AM EDT 7:08 PM EDT
Nautical Twilight 6:36 AM EDT 7:38 PM EDT
Astronomical Twilight 6:06 AM EDT 8:07 PM EDT
Moon 11:03 AM EDT (10/18) 9:23 PM EDT (10/18)
Length of Visible Light 12h 03m
Length of Day
11h 11m
Waxing Crescent, 14% of the Moon is Illuminated
Oct 18
Waxing Crescent
Oct 21
First Quarter
Oct 29
Full
Nov 6
Last Quarter
Nov 13
New

Hourly Weather History & Observations

Time (EDT) Temp. Dew Point Humidity Pressure Visibility Wind Dir Wind Speed Gust Speed Precip Events Conditions
12:53 AM 50.0 °F 48.9 °F 96% 29.93 in 10.0 mi Calm Calm - N/A   Clear
1:53 AM 50.0 °F 48.9 °F 96% 29.93 in 7.0 mi Calm Calm - N/A   Clear
2:53 AM 51.1 °F 50.0 °F 96% 29.93 in 9.0 mi Calm Calm - N/A   Clear
3:53 AM 51.1 °F 50.0 °F 96% 29.92 in 9.0 mi Calm Calm - N/A   Clear
4:53 AM 51.1 °F 51.1 °F 100% 29.92 in 6.0 mi Calm Calm - N/A   Mostly Cloudy
5:53 AM 51.1 °F 50.0 °F 96% 29.91 in 8.0 mi Calm Calm - N/A   Partly Cloudy
6:53 AM 52.0 °F 51.1 °F 97% 29.93 in 6.0 mi Calm Calm - N/A   Mostly Cloudy
7:53 AM 52.0 °F 51.1 °F 97% 29.94 in 8.0 mi Calm Calm - N/A   Scattered Clouds
8:53 AM 55.0 °F 53.1 °F 93% 29.95 in 9.0 mi Calm Calm - N/A   Mostly Cloudy
9:53 AM 59.0 °F 55.0 °F 87% 29.93 in 10.0 mi Calm Calm - N/A   Partly Cloudy
10:53 AM 64.9 °F 59.0 °F 81% 29.90 in 10.0 mi South 4.6 mph - N/A   Partly Cloudy
11:53 AM 69.1 °F 61.0 °F 75% 29.87 in 10.0 mi Variable 3.5 mph - N/A   Clear
12:53 PM 72.0 °F 61.0 °F 68% 29.86 in 10.0 mi South 9.2 mph - N/A   Scattered Clouds
1:53 PM 75.0 °F 60.1 °F 60% 29.83 in 10.0 mi SW 9.2 mph - N/A   Scattered Clouds
2:53 PM 77.0 °F 60.1 °F 56% 29.81 in 10.0 mi South 9.2 mph - N/A   Mostly Cloudy
3:53 PM 75.0 °F 60.1 °F 60% 29.80 in 10.0 mi Calm Calm - N/A   Overcast
4:53 PM 75.0 °F 61.0 °F 62% 29.80 in 10.0 mi South 5.8 mph - N/A   Mostly Cloudy
5:53 PM 73.9 °F 62.1 °F 66% 29.80 in 10.0 mi South 3.5 mph - N/A   Overcast
6:53 PM 71.1 °F 61.0 °F 70% 29.81 in 10.0 mi South 3.5 mph - N/A   Mostly Cloudy
7:53 PM 69.1 °F 61.0 °F 75% 29.82 in 10.0 mi Calm Calm - N/A   Overcast
8:53 PM 69.1 °F 62.1 °F 78% 29.82 in 10.0 mi Variable 4.6 mph - N/A   Overcast
10:53 PM 63.0 °F 60.1 °F 90% 29.81 in 10.0 mi Calm Calm - N/A   Clear
11:53 PM 62.1 °F 60.1 °F 93% 29.80 in 10.0 mi Calm Calm - N/A   Partly Cloudy